GW4284 Weather Reports


time (UTC)temp
C
wind
direction
speed
KPH
gust
KPH
rain 1hr
cm
rain 24hr
cm
rain mn
cm
humidity
%
barometer
mb
20260505091453 10 317 0.0 0.0 0.00 0.00 0.00 99 995.7
20260505090951 10 317 0.0 0.0 0.00 0.00 0.00 99 995.8
20260505090449 10 217 0.0 0.0 0.00 0.00 0.00 99 995.8
20260505085946 10 217 0.0 0.0 0.00 0.00 0.00 99 995.7
20260505085444 10 172 1.6 1.6 0.00 0.00 0.00 99 995.9
20260505084942 10 295 0.0 0.0 0.00 0.00 0.00 99 995.5
20260505084440 10 295 0.0 0.0 0.00 0.00 0.00 99 995.6
20260505083938 10 295 0.0 0.0 0.00 0.00 0.00 99 995.7
20260505083435 9 295 1.6 1.6 0.00 0.00 0.00 99 995.6
20260505082931 9 295 0.0 1.6 0.00 0.00 0.00 99 995.7
20260505082427 9 295 0.0 0.0 0.00 0.00 0.00 99 995.6
20260505081924 9 295 0.0 0.0 0.00 0.00 0.00 99 995.4
20260505081421 9 295 0.0 0.0 0.00 0.00 0.00 99 995.4
20260505080917 10 295 0.0 0.0 0.00 0.00 0.00 99 995.2
20260505080413 10 295 0.0 0.0 0.00 0.00 0.00 99 995.2
20260505075909 10 295 0.0 1.6 0.00 0.00 0.00 99 995.3
20260505075406 10 295 0.0 0.0 0.00 0.00 0.00 99 995.5
20260505074903 9 317 0.0 0.0 0.00 0.00 0.00 98 995.2
20260505074400 9 316 0.0 0.0 0.00 0.00 0.00 98 995.1
20260505073857 10 257 1.6 1.6 0.00 0.00 0.00 98 995.1
20260505073355 10 197 0.0 0.0 0.00 0.00 0.00 98 995.0
20260505072852 10 196 0.0 0.0 0.00 0.00 0.00 97 994.9
20260505072348 10 190 0.0 1.6 0.00 0.00 0.00 97 994.8
20260505071845 10 181 0.0 0.0 0.00 0.00 0.00 97 994.7
20260505071341 10 202 0.0 0.0 0.00 0.00 0.00 97 994.9
20260505070839 10 212 0.0 0.0 0.00 0.00 0.00 96 994.8
20260505070335 10 209 0.0 0.0 0.00 0.00 0.00 96 994.8
20260505065831 10 208 0.0 0.0 0.00 0.00 0.00 96 994.8
20260505065328 10 168 1.6 1.6 0.00 0.00 0.00 96 994.4
20260505064825 10 190 0.0 1.6 0.00 0.00 0.00 95 994.5
20260505064321 11 200 1.6 1.6 0.00 0.00 0.00 94 994.6
20260505063820 11 172 1.6 1.6 0.00 0.00 0.00 94 994.4
20260505063315 11 174 1.6 1.6 0.00 0.00 0.00 94 994.5
20260505062812 11 204 0.0 1.6 0.00 0.00 0.00 93 994.3
20260505062310 11 163 1.6 1.6 0.00 0.00 0.00 93 994.2
20260505061806 11 160 3.2 3.2 0.00 0.00 0.00 92 994.2
20260505061305 11 182 3.2 4.8 0.00 0.00 0.00 92 994.2
20260505060802 12 191 1.6 1.6 0.00 0.00 0.00 91 994.0
20260505060259 12 167 3.2 3.2 0.00 0.00 0.00 90 993.9
20260505055754 12 174 4.8 4.8 0.00 0.00 0.00 90 994.0
20260505055250 12 173 1.6 3.2 0.00 0.00 0.00 89 994.0
20260505054748 12 176 0.0 0.0 0.00 0.00 0.00 89 993.9
20260505054245 12 171 1.6 1.6 0.00 0.00 0.00 88 993.8
20260505053744 12 149 1.6 1.6 0.00 0.00 0.00 88 993.9
20260505053240 12 213 1.6 1.6 0.00 0.00 0.00 87 993.8
20260505052737 13 73 0.0 0.0 0.00 0.00 0.00 88 993.9
20260505052234 13 298 1.6 1.6 0.00 0.00 0.00 87 993.9
20260505051731 13 299 0.0 1.6 0.00 0.00 0.00 87 993.9
20260505051229 13 301 1.6 1.6 0.00 0.00 0.00 87 993.8
20260505050727 13 302 0.0 1.6 0.00 0.00 0.00 86 993.6
20260505050225 13 307 3.2 3.2 0.00 0.00 0.00 85 993.5
20260505041654 15 311 3.2 3.2 0.00 0.00 0.00 82 993.3
20260505041152 15 288 3.2 3.2 0.00 0.00 0.00 80 993.0
20260505040649 15 316 6.4 8.0 0.00 0.00 0.00 80 993.2
20260505040146 16 308 8.0 9.7 0.00 0.00 0.00 78 993.2
20260505035642 16 312 4.8 8.0 0.00 0.00 0.00 79 993.0
20260505035139 16 320 9.7 11.3 0.00 0.00 0.00 78 993.0
20260505034635 16 277 8.0 11.3 0.00 0.00 0.00 78 993.1
20260505034132 16 304 4.8 4.8 0.00 0.00 0.00 77 992.7
20260505033628 16 330 4.8 4.8 0.00 0.00 0.00 76 992.8
20260505033127 17 197 1.6 1.6 0.00 0.00 0.00 75 992.7
20260505032625 17 264 4.8 4.8 0.00 0.00 0.00 73 992.8
20260505032121 17 312 8.0 11.3 0.00 0.00 0.00 72 992.5
20260505031618 17 308 8.0 11.3 0.00 0.00 0.00 72 992.5
20260505031114 17 309 8.0 9.7 0.00 0.00 0.00 70 992.6
20260505030612 18 320 11.3 11.3 0.00 0.00 0.00 69 992.5
20260505030107 18 271 6.4 9.7 0.00 0.00 0.00 70 992.4
20260505025603 18 83 1.6 3.2 0.00 0.00 0.00 68 992.5
20260505025102 18 299 8.0 11.3 0.00 0.00 0.00 66 992.3
20260505024559 18 289 8.0 11.3 0.00 0.00 0.00 66 992.1
20260505024056 19 327 4.8 8.0 0.00 0.00 0.00 66 992.2
20260505023553 19 327 4.8 4.8 0.00 0.00 0.00 63 992.0
20260505023051 19 277 9.7 12.9 0.00 0.00 0.00 63 992.2
20260505022548 20 280 8.0 11.3 0.00 0.00 0.00 64 992.1
20260505022045 20 347 1.6 3.2 0.00 0.00 0.00 65 992.2
20260505021541 20 253 4.8 8.0 0.00 0.00 0.00 64 992.1
20260505021033 20 330 6.4 8.0 0.00 0.00 0.00 67 992.1
20260505020533 20 295 1.6 3.2 0.00 0.00 0.00 67 992.4
20260505020030 20 14 1.6 3.2 0.00 0.00 0.00 67 992.0
20260505015527 21 87 1.6 1.6 0.00 0.00 0.00 68 992.0
20260505015024 21 208 3.2 4.8 0.00 0.00 0.00 68 992.1
20260505014520 21 334 4.8 4.8 0.00 0.00 0.00 70 991.9
20260505014018 21 345 3.2 3.2 0.00 0.00 0.00 69 991.9
20260505013515 21 283 1.6 1.6 0.00 0.00 0.00 68 991.9
20260505013012 21 286 6.4 8.0 0.00 0.00 0.00 65 992.0
20260505012510 21 301 1.6 1.6 0.00 0.00 0.00 66 992.1
20260505012007 21 246 4.8 4.8 0.00 0.00 0.00 65 992.1
20260505011503 22 203 0.0 1.6 0.00 0.00 0.00 65 992.3
20260505011000 22 319 1.6 3.2 0.00 0.00 0.00 63 992.0
20260505010455 22 308 1.6 1.6 0.00 0.00 0.00 64 992.0
20260505005951 22 312 0.0 1.6 0.00 0.00 0.00 65 992.3
20260505005448 22 183 3.2 3.2 0.00 0.00 0.00 67 992.3
20260505004946 22 253 8.0 11.3 0.00 0.00 0.00 63 992.2
20260505004443 22 210 1.6 3.2 0.00 0.00 0.00 65 992.2
20260505003940 22 218 0.0 1.6 0.00 0.00 0.00 64 992.4
20260505003437 22 240 3.2 3.2 0.00 0.00 0.00 66 992.6
20260505002933 22 297 6.4 9.7 0.00 0.00 0.00 65 992.6
20260505002429 23 173 1.6 1.6 0.00 0.00 0.00 65 992.5
20260505001928 22 241 0.0 1.6 0.00 0.00 0.00 64 992.4
20260505001425 22 3 3.2 3.2 0.00 0.00 0.00 67 992.4
20260505000922 22 292 1.6 1.6 0.00 0.00 0.00 64 992.5
20260505000420 22 298 1.6 3.2 0.00 0.00 0.00 63 992.6
20260504235916 22 175 4.8 8.0 0.00 0.00 0.00 64 992.4
20260504235414 23 249 3.2 3.2 0.00 0.00 0.00 63 992.7
20260504234910 22 272 4.8 4.8 0.00 0.00 0.00 63 992.7
20260504234407 22 311 3.2 8.0 0.00 0.00 0.00 65 992.4
20260504233904 22 172 3.2 3.2 0.00 0.00 0.00 63 992.6
20260504233359 22 199 3.2 4.8 0.00 0.00 0.00 65 992.6
20260504232856 22 232 3.2 3.2 0.00 0.00 0.00 63 992.6
20260504232353 22 176 1.6 3.2 0.00 0.00 0.00 63 992.7
20260504231850 22 213 4.8 4.8 0.00 0.00 0.00 65 992.6
20260504231347 22 303 1.6 1.6 0.00 0.00 0.00 68 992.6
20260504230843 23 268 3.2 3.2 0.00 0.00 0.00 63 992.9
20260504230341 22 193 1.6 1.6 0.00 0.00 0.00 67 992.7
20260504225839 22 242 4.8 4.8 0.00 0.00 0.00 68 992.8
20260504225335 22 132 4.8 4.8 0.00 0.00 0.00 64 992.9
20260504224833 21 189 3.2 3.2 0.00 0.00 0.00 65 992.8
20260504224330 21 160 8.0 9.7 0.00 0.00 0.00 67 993.2
20260504223826 22 174 8.0 11.3 0.00 0.00 0.00 66 993.0
20260504223322 22 231 4.8 8.0 0.00 0.00 0.00 64 993.3
20260504222819 22 252 1.6 3.2 0.00 0.00 0.00 64 993.3
20260504222316 21 162 8.0 9.7 0.00 0.00 0.00 66 993.3
20260504221814 21 145 8.0 9.7 0.00 0.00 0.00 66 993.3
20260504221310 22 183 9.7 14.5 0.00 0.00 0.00 65 993.5
20260504220807 22 242 1.6 3.2 0.00 0.00 0.00 66 993.6
20260504220304 21 75 0.0 1.6 0.00 0.00 0.00 68 993.4
20260504215802 21 233 4.8 8.0 0.00 0.00 0.00 69 993.3
20260504215258 21 207 8.0 9.7 0.00 0.00 0.00 67 993.7
20260504214754 21 217 4.8 4.8 0.00 0.00 0.00 66 993.7
20260504214250 21 148 6.4 8.0 0.00 0.00 0.00 65 993.8
20260504213747 21 165 6.4 8.0 0.00 0.00 0.00 66 993.9
20260504213243 21 162 4.8 4.8 0.00 0.00 0.00 66 993.7
20260504212741 20 209 3.2 3.2 0.00 0.00 0.00 71 993.7
20260504212237 20 163 1.6 3.2 0.00 0.00 0.00 68 994.0
20260504211735 20 19 4.8 4.8 0.00 0.00 0.00 69 994.0
20260504211230 20 113 6.4 8.0 0.00 0.00 0.00 68 993.9
20260504210728 20 293 1.6 1.6 0.00 0.00 0.00 71 994.0
20260504210225 20 324 4.8 4.8 0.00 0.00 0.00 67 994.2
20260504205722 19 136 3.2 3.2 0.00 0.00 0.00 70 994.1
20260504205220 20 173 8.0 12.9 0.00 0.00 0.00 68 994.4
20260504204718 20 284 1.6 1.6 0.00 0.00 0.00 68 994.4
20260504204216 20 141 1.6 4.8 0.00 0.00 0.00 72 994.4
20260504203715 19 177 1.6 3.2 0.00 0.00 0.00 71 994.4
20260504203207 18 211 3.2 3.2 0.00 0.00 0.00 71 994.5
20260504202706 18 122 4.8 8.0 0.00 0.00 0.00 71 994.6
20260504202204 18 183 8.0 11.3 0.00 0.00 0.00 74 994.6
20260504201701 19 216 4.8 4.8 0.00 0.00 0.00 70 994.7
20260504201158 19 328 0.0 1.6 0.00 0.00 0.00 72 994.6
20260504200655 18 193 8.0 9.7 0.00 0.00 0.00 73 994.8
20260504200152 18 172 0.0 1.6 0.00 0.00 0.00 73 994.8
20260504195648 17 166 4.8 4.8 0.00 0.00 0.00 76 994.9
20260504195144 18 166 12.9 14.5 0.00 0.00 0.00 72 994.8
20260504194641 17 135 6.4 9.7 0.00 0.00 0.00 75 995.0
20260504194137 17 160 9.7 11.3 0.00 0.00 0.00 74 994.7
20260504193633 17 146 6.4 9.7 0.00 0.00 0.00 75 994.9
20260504193132 17 162 4.8 8.0 0.00 0.00 0.00 75 995.0
20260504192629 17 224 0.0 1.6 0.00 0.00 0.00 77 995.0
20260504192127 18 105 3.2 4.8 0.00 0.00 0.00 77 994.8
20260504191625 17 313 3.2 3.2 0.00 0.00 0.00 78 995.0
20260504191121 17 137 4.8 8.0 0.00 0.00 0.00 75 995.1
20260504190617 17 211 3.2 3.2 0.00 0.00 0.00 73 995.1
20260504190114 17 95 1.6 1.6 0.00 0.00 0.00 75 995.3
20260504185611 17 130 1.6 1.6 0.00 0.00 0.00 75 995.3
20260504185107 17 55 1.6 3.2 0.00 0.00 0.00 77 995.3
20260504184603 17 106 4.8 9.7 0.00 0.00 0.00 78 995.3
20260504184058 16 159 4.8 4.8 0.00 0.00 0.00 79 995.3
20260504183556 16 141 1.6 1.6 0.00 0.00 0.00 77 995.4
20260504183054 16 236 3.2 3.2 0.00 0.00 0.00 80 995.2
20260504182550 17 189 9.7 9.7 0.00 0.00 0.00 76 995.2
20260504182048 17 238 6.4 8.0 0.00 0.00 0.00 75 995.4
20260504181545 16 196 3.2 4.8 0.00 0.00 0.00 79 995.4
20260504181043 16 157 8.0 8.0 0.00 0.00 0.00 78 995.2
20260504180542 16 167 4.8 9.7 0.00 0.00 0.00 77 995.4
20260504180040 16 161 6.4 9.7 0.00 0.00 0.00 79 995.1
20260504175537 15 150 8.0 11.3 0.00 0.00 0.00 80 995.2
20260504175034 16 162 3.2 3.2 0.00 0.00 0.00 78 995.2
20260504174532 15 177 1.6 3.2 0.00 0.00 0.00 80 995.2
20260504174028 16 166 6.4 8.0 0.00 0.00 0.00 79 995.4
20260504173525 15 151 9.7 11.3 0.00 0.00 0.00 80 995.2
20260504173022 15 130 4.8 4.8 0.00 0.00 0.00 80 995.2
20260504172519 15 145 8.0 9.7 0.00 0.00 0.00 78 995.1
20260504172015 15 192 6.4 11.3 0.00 0.00 0.00 83 995.4
20260504171512 15 237 3.2 3.2 0.00 0.00 0.00 83 995.3
20260504171009 15 191 4.8 8.0 0.00 0.00 0.00 82 995.2
20260504170505 15 198 9.7 11.3 0.00 0.00 0.00 81 995.2
20260504160425 15 227 4.8 8.0 0.00 0.00 0.00 82 994.9
20260504150849 13 147 8.0 11.3 0.00 0.00 0.00 85 994.5
20260504150345 13 191 6.4 8.0 0.00 0.00 0.00 84 994.4
20260504141316 13 189 1.6 1.6 0.00 0.00 0.00 86 994.1
20260504140812 13 160 1.6 1.6 0.00 0.00 0.00 86 994.0
20260504140308 13 123 3.2 8.0 0.00 0.00 0.00 85 993.9
20260504130737 13 157 3.2 3.2 0.00 0.00 0.00 85 992.9
20260504130232 13 155 3.2 3.2 0.00 0.00 0.00 84 992.8
20260504120156 15 181 6.4 8.0 0.00 0.00 0.00 76 992.0
20260504110624 16 162 1.6 1.6 0.00 0.00 0.00 66 991.3
20260504110120 16 163 1.6 1.6 0.00 0.00 0.00 65 991.2
20260504100545 15 61 3.2 3.2 0.00 0.00 0.00 74 991.1